Dayton, OH

5:05 AM EDT on August 29, 2016 (GMT -0400)
Cox-Dayton International

Weather History for KDAY - January, 2012

Change the Weather History Date:

Monday, January 23, 2012

  Actual Average Record
Temperature  
Mean Temperature 44 °F 27 °F  
Max Temperature 54 °F 35 °F 69 °F (1967)
Min Temperature 34 °F 20 °F -18 °F (1963)
Degree Days  
Heating Degree Days 21 38  
Month to date heating degree days 814 868  
Since 1 July heating degree days 2702 3027  
Cooling Degree Days 0 0  
Month to date cooling degree days 0 0  
Year to date cooling degree days 0 0  
Moisture  
Dew Point 42 °F    
Average Humidity 88    
Maximum Humidity 100    
Minimum Humidity 75    
Precipitation  
Precipitation 0.70 in 0.08 in 0.94 in (1996)
Month to date precipitation 2.77 2.07  
Year to date precipitation 2.77 2.07  
Snow  
Snow 0.00 in 0.30 in 3.00 in (1951)
Month to date snowfall 4.8 5.9  
Since 1 July snowfall 6.5 11.4  
Snow Depth 0.00 in    
Sea Level Pressure  
Sea Level Pressure 29.73 in    
Wind  
Wind Speed 20 mph (SSW)    
Max Wind Speed 37 mph    
Max Gust Speed 49 mph    
Visibility 8 miles    
Events Rain , Thunderstorm    
T = Trace of Precipitation, MM = Missing Value Source: NWS Daily Summary

Daily Weather History Graph

Daily Weather History Graph

Search for Another Location

Airport or City:

Trip Planner

Search our weather history database for the weather conditions in past years. The results will help you decide how hot, cold, wet, or windy it might be!

Date:

Astronomy

Jan. 23, 2012 Rise Set
Actual Time 7:52 AM EST 5:44 PM EST
Civil Twilight 7:23 AM EST 6:14 PM EST
Nautical Twilight 6:50 AM EST 6:47 PM EST
Astronomical Twilight 6:18 AM EST 7:19 PM EST
Moon 7:47 AM EST (1/23) 6:31 PM EST (1/23)
Length of Visible Light 10h 50m
Length of Day
9h 52m
New Moon, 0% of the Moon is Illuminated
Jan 23
New Moon
Jan 30
First Quarter
Feb 7
Full
Feb 14
Last Quarter
Feb 21
New

Hourly Weather History & Observations

Time (EST) Temp. Windchill Dew Point Humidity Pressure Visibility Wind Dir Wind Speed Gust Speed Precip Events Conditions
12:21 AM 44.6 °F 38.1 °F 42.8 °F 93% 29.78 in 10.0 mi SE 13.8 mph - N/A   Scattered Clouds
12:56 AM 46.9 °F - 45.0 °F 93% 29.77 in 10.0 mi SSE 13.8 mph - 0.00 in   Mostly Cloudy
1:27 AM 46.4 °F 40.4 °F 46.4 °F 100% 29.73 in 10.0 mi SSE 13.8 mph - 0.01 in Rain Light Rain
1:49 AM 48.2 °F - 48.2 °F 100% 29.72 in 2.0 mi SSE 13.8 mph - 0.07 in Rain , Thunderstorm Thunderstorms and Rain
1:56 AM 48.0 °F - 48.0 °F 100% 29.73 in 1.2 mi SSE 16.1 mph - 0.24 in Rain , Thunderstorm Heavy Thunderstorms and Rain
2:02 AM 48.2 °F - 48.2 °F 100% 29.71 in 2.0 mi SSE 13.8 mph - 0.09 in Rain , Thunderstorm Light Thunderstorms and Rain
2:09 AM 48.2 °F - 48.2 °F 100% 29.71 in 7.0 mi SE 13.8 mph - 0.09 in Rain Light Rain
2:28 AM 48.2 °F - 48.2 °F 100% 29.71 in 9.0 mi SSE 13.8 mph 21.9 mph 0.10 in   Overcast
2:31 AM 48.2 °F - 48.2 °F 100% 29.71 in 5.0 mi SSE 15.0 mph 21.9 mph 0.11 in Rain , Thunderstorm Light Thunderstorms and Rain
2:49 AM 48.2 °F - 48.2 °F 100% 29.69 in 7.0 mi SSE 17.3 mph - 0.17 in Rain Light Rain
2:56 AM 48.2 °F - 48.2 °F 100% 29.68 in 10.0 mi SSE 16.1 mph 23.0 mph N/A   Overcast
3:26 AM 48.2 °F - 48.2 °F 100% 29.66 in 10.0 mi SSE 17.3 mph 24.2 mph N/A   Overcast
3:56 AM 50.0 °F - 48.9 °F 96% 29.73 in 2.0 mi SSW 17.3 mph 24.2 mph 0.08 in Rain Heavy Rain
4:10 AM 50.0 °F - 48.2 °F 94% 29.73 in 6.0 mi SW 18.4 mph 46.0 mph 0.06 in Rain Light Rain
4:19 AM 50.0 °F - 48.2 °F 94% 29.73 in 9.0 mi SW 16.1 mph 24.2 mph 0.07 in Rain Light Rain
4:56 AM 48.0 °F - 46.9 °F 96% 29.74 in 7.0 mi SSW 11.5 mph - 0.08 in Rain Light Rain
5:56 AM 46.0 °F 37.4 °F 46.0 °F 100% 29.63 in 10.0 mi SE 25.3 mph - 0.09 in Rain Light Rain
6:56 AM 46.4 °F 39.5 °F 46.4 °F 100% 29.59 in 10.0 mi SSE 17.3 mph 26.5 mph N/A   Overcast
7:56 AM 46.9 °F - 46.0 °F 97% 29.61 in 10.0 mi South 15.0 mph 25.3 mph 0.01 in   Overcast
8:56 AM 50.0 °F - 46.0 °F 86% 29.61 in 10.0 mi South 18.4 mph 26.5 mph N/A   Scattered Clouds
9:56 AM 52.0 °F - 46.9 °F 83% 29.60 in 10.0 mi South 19.6 mph 35.7 mph N/A   Scattered Clouds
10:41 AM 53.6 °F - 48.2 °F 82% 29.59 in 10.0 mi South 23.0 mph 34.5 mph N/A   Overcast
10:56 AM 53.1 °F - 48.0 °F 83% 29.59 in 10.0 mi SSW 21.9 mph 34.5 mph 0.01 in   Mostly Cloudy
11:25 AM 53.6 °F - 48.2 °F 82% 29.59 in 10.0 mi SSW 21.9 mph 29.9 mph N/A   Overcast
11:40 AM 51.8 °F - 48.2 °F 88% 29.59 in 8.0 mi SSW 15.0 mph 28.8 mph 0.00 in Rain Light Rain
11:56 AM 52.0 °F - 48.0 °F 86% 29.59 in 9.0 mi SSW 19.6 mph 31.1 mph 0.00 in Rain Light Rain
12:30 PM 51.8 °F - 48.2 °F 88% 29.58 in 10.0 mi SW 21.9 mph 31.1 mph 0.00 in Rain Light Rain
12:56 PM 51.1 °F - 46.9 °F 86% 29.61 in 5.0 mi WSW 34.5 mph 49.5 mph 0.00 in Rain Light Rain
1:21 PM 48.2 °F - 44.6 °F 87% 29.62 in 9.0 mi WSW 27.6 mph 40.3 mph 0.00 in   Overcast
1:36 PM 46.4 °F 37.9 °F 42.8 °F 87% 29.63 in 7.0 mi WSW 25.3 mph 35.7 mph 0.01 in   Overcast
1:56 PM 46.0 °F 36.7 °F 42.1 °F 86% 29.65 in 6.0 mi WSW 29.9 mph 35.7 mph 0.01 in   Overcast
2:56 PM 44.1 °F 34.0 °F 37.9 °F 79% 29.70 in 6.0 mi WSW 29.9 mph 44.9 mph N/A   Haze
3:56 PM 37.4 °F 26.4 °F 33.8 °F 87% 29.74 in 5.0 mi West 23.0 mph 32.2 mph N/A   Overcast
4:56 PM 37.0 °F 25.6 °F 32.0 °F 82% 29.81 in 5.0 mi West 24.2 mph 33.4 mph N/A   Haze
5:16 PM 35.6 °F 24.5 °F 30.2 °F 81% 29.81 in 6.0 mi WSW 20.7 mph 29.9 mph N/A   Haze
5:56 PM 36.0 °F 25.3 °F 30.0 °F 79% 29.84 in 10.0 mi WSW 19.6 mph 33.4 mph N/A   Overcast
6:49 PM 35.6 °F 24.5 °F 28.4 °F 75% 29.87 in 9.0 mi WSW 20.7 mph 28.8 mph N/A   Overcast
6:56 PM 36.0 °F 25.0 °F 28.9 °F 76% 29.89 in 9.0 mi WSW 20.7 mph 28.8 mph N/A   Overcast
7:56 PM 34.0 °F 22.1 °F 28.0 °F 79% 29.94 in 9.0 mi WSW 21.9 mph 39.1 mph N/A   Overcast
8:56 PM 34.0 °F 23.0 °F 28.0 °F 79% 29.96 in 8.0 mi WSW 18.4 mph 27.6 mph N/A   Overcast
9:56 PM 34.0 °F 24.2 °F 28.9 °F 82% 29.97 in 8.0 mi WSW 15.0 mph - N/A   Overcast
10:56 PM 34.0 °F 24.6 °F 28.9 °F 82% 29.97 in 9.0 mi WSW 13.8 mph - N/A   Overcast
11:26 PM 33.8 °F 24.3 °F 28.4 °F 81% 29.97 in 9.0 mi WSW 13.8 mph - N/A   Overcast
11:56 PM 33.8 °F 23.2 °F 28.4 °F 81% 29.97 in 9.0 mi WSW 17.3 mph 23.0 mph N/A   Overcast